TimeEST,TemperatureF,Dew PointF,Humidity,Sea Level PressureIn,VisibilityMPH,Wind Direction,Wind SpeedMPH,Gust SpeedMPH,PrecipitationIn,Events,Conditions,WindDirDegrees,DateUTC
12:53 AM,28.9,19.0,67,29.42,10.0,WSW,5.8,-,N/A,,Partly Cloudy,250,2012-11-25 05:53:00
1:53 AM,28.9,18.0,64,29.44,10.0,West,6.9,-,N/A,,Partly Cloudy,260,2012-11-25 06:53:00
2:53 AM,30.0,14.0,51,29.44,10.0,West,8.1,19.6,N/A,,Scattered Clouds,260,2012-11-25 07:53:00
3:53 AM,28.9,17.1,61,29.45,10.0,WNW,13.8,28.8,0.00,,Mostly Cloudy,300,2012-11-25 08:53:00
4:53 AM,28.9,16.0,58,29.46,10.0,West,12.7,24.2,N/A,,Mostly Cloudy,270,2012-11-25 09:53:00
5:53 AM,28.9,15.1,56,29.48,10.0,West,12.7,21.9,N/A,,Mostly Cloudy,280,2012-11-25 10:53:00
6:53 AM,28.0,14.0,56,29.50,10.0,West,9.2,21.9,N/A,,Scattered Clouds,280,2012-11-25 11:53:00
7:53 AM,28.9,12.9,51,29.52,10.0,WNW,18.4,32.2,N/A,,Mostly Cloudy,290,2012-11-25 12:53:00
8:53 AM,28.9,14.0,54,29.53,10.0,WNW,11.5,23.0,0.00,,Mostly Cloudy,290,2012-11-25 13:53:00
9:53 AM,30.9,12.9,47,29.54,10.0,West,13.8,24.2,N/A,,Mostly Cloudy,270,2012-11-25 14:53:00
10:53 AM,30.9,12.0,46,29.54,10.0,West,13.8,26.5,N/A,,Mostly Cloudy,270,2012-11-25 15:53:00
11:53 AM,30.9,12.0,46,29.54,10.0,West,9.2,20.7,N/A,,Mostly Cloudy,270,2012-11-25 16:53:00
12:53 PM,30.9,12.9,47,29.55,10.0,West,11.5,20.7,N/A,,Mostly Cloudy,260,2012-11-25 17:53:00
1:53 PM,30.9,12.0,46,29.55,10.0,WSW,17.3,25.3,N/A,,Mostly Cloudy,250,2012-11-25 18:53:00
2:53 PM,30.0,10.0,43,29.56,10.0,West,10.4,19.6,N/A,,Mostly Cloudy,260,2012-11-25 19:53:00
3:53 PM,28.9,10.0,45,29.59,10.0,West,10.4,23.0,N/A,,Overcast,260,2012-11-25 20:53:00
4:53 PM,28.0,10.0,47,29.61,10.0,West,8.1,21.9,N/A,,Overcast,280,2012-11-25 21:53:00
5:53 PM,28.0,10.9,49,29.62,10.0,West,12.7,18.4,N/A,,Overcast,280,2012-11-25 22:53:00
6:53 PM,27.0,10.9,51,29.64,10.0,Variable,5.8,17.3,N/A,,Mostly Cloudy,0,2012-11-25 23:53:00
7:53 PM,27.0,10.9,51,29.66,10.0,West,5.8,-,N/A,,Mostly Cloudy,280,2012-11-26 00:53:00
8:53 PM,26.1,10.9,53,29.68,10.0,Variable,6.9,-,N/A,,Scattered Clouds,0,2012-11-26 01:53:00
9:53 PM,25.0,10.9,55,29.68,10.0,WSW,8.1,-,N/A,,Partly Cloudy,250,2012-11-26 02:53:00
10:53 PM,24.1,10.9,57,29.70,10.0,West,8.1,-,N/A,,Scattered Clouds,260,2012-11-26 03:53:00
11:53 PM,24.1,10.9,57,29.72,10.0,Variable,5.8,-,N/A,,Mostly Cloudy,0,2012-11-26 04:53:00